Hourly Data Report for October 28, 2013

All times are specified in Local Standard Time (LST). Add 1 hour to adjust for Daylight Saving Time where and when it is observed.

MONCTON INTL A
NEW BRUNSWICK

46°06'44.000" N
64°40'43.000" W
70.70 m
8103201
71705
YQM

Download Data

Hourly Data (October 2013)
Hourly Data Report for October 28, 2013
Temp Definition
°C
Dew Point Temp Definition
°C
Rel Hum Definition
%
Wind Dir Definition
10's deg

Wind Spd Definition
km/h
Visibility Definition
km
Stn Press Definition
kPa
Hmdx Definition


Wind Chill Definition


Weather Definition


TIME
00:00 Legend Double Dagger 3.9 3.2 95 22 12 24.1 100.07     LegendNANA
01:00 Legend Double Dagger 4.0 3.3 95 23 15 24.1 100.08     LegendNANA
02:00 Legend Double Dagger 4.1 3.2 94 23 19 24.1 100.11     Mostly Cloudy
03:00 Legend Double Dagger 3.6 2.7 94 23 19 24.1 100.16     LegendNANA
04:00 Legend Double Dagger 2.4 1.4 93 22 18 24.1 100.19     LegendNANA
05:00 Legend Double Dagger 1.8 0.9 94 23 18 24.1 100.23     Mainly Clear
06:00 Legend Double Dagger 1.8 0.8 93 23 20 24.1 100.26     LegendNANA
07:00 Legend Double Dagger 0.9 0.0 94 23 17 24.1 100.32     LegendNANA
08:00 Legend Double Dagger 1.4 0.1 91 23 21 24.1 100.43     Mainly Clear
09:00 Legend Double Dagger 2.8 0.5 85 24 21 24.1 100.48     LegendNANA
10:00 Legend Double Dagger 4.2 0.2 75 24 30 24.1 100.52     LegendNANA
11:00 Legend Double Dagger 5.1 -1.4 63 26 31 24.1 100.52     Mainly Clear
12:00 Legend Double Dagger 6.8 -2.1 53 24 31 24.1 100.48     LegendNANA
13:00 Legend Double Dagger 7.0 -2.4 51 24 32 24.1 100.47     LegendNANA
14:00 Legend Double Dagger 8.7 -2.0 47 23 27 24.1 100.46     Mostly Cloudy
15:00 Legend Double Dagger 7.2 -2.8 49 25 26 24.1 100.49     LegendNANA
16:00 Legend Double Dagger 6.6 -2.0 54 26 26 24.1 100.57     LegendNANA
17:00 Legend Double Dagger 5.3 -0.1 68 26 17 24.1 100.59     Rain Showers
18:00 Legend Double Dagger 4.2 1.1 80 31 28 24.1 100.73     Rain Showers,Hail
19:00 Legend Double Dagger 1.9 0.9 93 31 9 24.1 100.89     LegendNANA
20:00 Legend Double Dagger 1.2 0.2 93 28 12 24.1 101.08     Mainly Clear
21:00 Legend Double Dagger 0.6 -0.7 91 27 13 24.1 101.19     LegendNANA
22:00 Legend Double Dagger -0.1 -1.4 91 27 15 24.1 101.27   -5 LegendNANA
23:00 Legend Double Dagger -1.0 -2.0 93 25 13 24.1 101.32   -5 Clear

Notes on Data Quality.

Legend

  • E = Estimated
  • M = Missing
  • NA = Not Available
  • ‡ = Partner data that is not subject to review by the National Climate Archives
Date modified: